Time,TemperatureF,DewpointF,PressureIn,WindDirection,WindDirectionDegrees,WindSpeedMPH,WindSpeedGustMPH,Humidity,HourlyPrecipIn,Conditions,Clouds,dailyrainin,SolarRadiationWatts/m^2,SoftwareType,DateUTC
2013-02-10 00:11:00,24.0,15.0,-100.00,ENE,69,0.0,10.0,69,0.00,,,0.00,0.000000,,2013-02-10 08:11:00,
2013-02-10 00:21:00,24.0,15.0,-100.00,ENE,69,0.0,10.0,69,0.00,,,0.00,0.000000,,2013-02-10 08:21:00,
2013-02-10 00:31:00,24.0,15.0,-100.00,ENE,69,0.0,10.0,69,0.00,,,0.00,0.000000,,2013-02-10 08:31:00,
2013-02-10 00:43:00,24.0,15.0,-100.00,ENE,69,0.0,10.0,69,0.00,,,0.00,0.000000,,2013-02-10 08:43:00,
2013-02-10 00:51:00,24.0,18.0,-100.00,South,177,0.0,0.0,76,0.00,,,0.00,0.000000,,2013-02-10 08:51:00,
2013-02-10 01:11:00,24.0,18.0,-100.00,South,177,0.0,0.0,76,0.00,,,0.00,0.000000,,2013-02-10 09:11:00,
2013-02-10 01:21:00,24.0,18.0,-100.00,South,177,0.0,0.0,76,0.00,,,0.00,0.000000,,2013-02-10 09:21:00,
2013-02-10 01:31:00,24.0,18.0,-100.00,South,177,0.0,0.0,76,0.00,,,0.00,0.000000,,2013-02-10 09:31:00,
2013-02-10 01:41:00,24.0,18.0,-100.00,South,177,0.0,0.0,76,0.00,,,0.00,0.000000,,2013-02-10 09:41:00,
2013-02-10 01:51:00,25.0,17.0,-100.00,South,191,1.0,4.0,70,0.00,,,0.00,0.000000,,2013-02-10 09:51:00,
2013-02-10 02:11:00,25.0,17.0,-100.00,South,191,1.0,4.0,70,0.00,,,0.00,0.000000,,2013-02-10 10:11:00,
2013-02-10 02:21:00,25.0,17.0,-100.00,South,191,1.0,4.0,70,0.00,,,0.00,0.000000,,2013-02-10 10:21:00,
2013-02-10 02:31:00,25.0,17.0,-100.00,South,191,1.0,4.0,70,0.00,,,0.00,0.000000,,2013-02-10 10:31:00,
2013-02-10 02:41:00,25.0,17.0,-100.00,South,191,1.0,4.0,70,0.00,,,0.00,0.000000,,2013-02-10 10:41:00,
2013-02-10 02:51:00,25.0,13.0,-100.00,SSW,193,3.0,4.0,59,0.00,,,0.00,0.000000,,2013-02-10 10:51:00,
2013-02-10 03:11:00,25.0,13.0,-100.00,SSW,193,3.0,4.0,59,0.00,,,0.00,0.000000,,2013-02-10 11:11:00,
2013-02-10 03:21:00,25.0,13.0,-100.00,SSW,193,3.0,4.0,59,0.00,,,0.00,0.000000,,2013-02-10 11:21:00,
2013-02-10 03:32:00,25.0,13.0,-100.00,SSW,193,3.0,4.0,59,0.00,,,0.00,0.000000,,2013-02-10 11:32:00,
2013-02-10 03:42:00,25.0,13.0,-100.00,SSW,193,3.0,4.0,59,0.00,,,0.00,0.000000,,2013-02-10 11:42:00,
2013-02-10 03:51:00,25.0,12.0,-100.00,SSW,199,4.0,5.0,56,0.00,,,0.00,0.000000,,2013-02-10 11:51:00,
2013-02-10 04:12:00,25.0,12.0,-100.00,SSW,199,4.0,5.0,56,0.00,,,0.00,0.000000,,2013-02-10 12:12:00,
2013-02-10 04:21:00,25.0,12.0,-100.00,SSW,199,4.0,5.0,56,0.00,,,0.00,0.000000,,2013-02-10 12:21:00,
2013-02-10 04:32:00,25.0,12.0,-100.00,SSW,199,4.0,5.0,56,0.00,,,0.00,0.000000,,2013-02-10 12:32:00,
2013-02-10 04:41:00,25.0,12.0,-100.00,SSW,199,4.0,5.0,56,0.00,,,0.00,0.000000,,2013-02-10 12:41:00,
2013-02-10 06:51:00,23.0,12.0,-100.00,NW,307,7.0,11.0,63,-99.99,,,0.00,1.000000,,2013-02-10 14:51:00,
2013-02-10 07:11:00,23.0,12.0,-100.00,NW,307,7.0,11.0,63,-99.99,,,0.00,1.000000,,2013-02-10 15:11:00,
2013-02-10 07:21:00,23.0,12.0,-100.00,NW,307,7.0,11.0,63,-99.99,,,0.00,1.000000,,2013-02-10 15:21:00,
2013-02-10 07:31:00,23.0,12.0,-100.00,NW,307,7.0,11.0,63,-99.99,,,0.00,1.000000,,2013-02-10 15:31:00,
2013-02-10 07:41:00,23.0,12.0,-100.00,NW,307,7.0,11.0,63,-99.99,,,0.00,1.000000,,2013-02-10 15:41:00,
2013-02-10 07:51:00,23.0,13.0,-100.00,NE,49,8.0,11.0,64,0.00,,,0.00,39.000000,,2013-02-10 15:51:00,
2013-02-10 08:11:00,23.0,13.0,-100.00,NE,49,8.0,11.0,64,0.00,,,0.00,39.000000,,2013-02-10 16:11:00,
2013-02-10 08:21:00,23.0,13.0,-100.00,NE,49,8.0,11.0,64,0.00,,,0.00,39.000000,,2013-02-10 16:21:00,
2013-02-10 08:32:00,23.0,13.0,-100.00,NE,49,8.0,11.0,64,0.00,,,0.00,39.000000,,2013-02-10 16:32:00,
2013-02-10 08:42:00,23.0,13.0,-100.00,NE,49,8.0,11.0,64,0.00,,,0.00,39.000000,,2013-02-10 16:42:00,
2013-02-10 08:51:00,25.0,15.0,-100.00,North,1,6.0,11.0,64,0.00,,,0.00,391.000000,,2013-02-10 16:51:00,
2013-02-10 09:21:00,25.0,15.0,-100.00,North,1,6.0,11.0,64,0.00,,,0.00,391.000000,,2013-02-10 17:21:00,
2013-02-10 09:32:00,25.0,15.0,-100.00,North,1,6.0,11.0,64,0.00,,,0.00,391.000000,,2013-02-10 17:32:00,
2013-02-10 09:42:00,25.0,15.0,-100.00,North,1,6.0,11.0,64,0.00,,,0.00,391.000000,,2013-02-10 17:42:00,
2013-02-10 09:51:00,31.0,18.0,-100.00,SW,230,1.0,10.0,58,0.00,,,0.00,662.000000,,2013-02-10 17:51:00,
2013-02-10 10:21:00,31.0,18.0,-100.00,SW,230,1.0,10.0,58,0.00,,,0.00,662.000000,,2013-02-10 18:21:00,
2013-02-10 10:31:00,31.0,18.0,-100.00,SW,230,1.0,10.0,58,0.00,,,0.00,662.000000,,2013-02-10 18:31:00,
2013-02-10 10:41:00,31.0,18.0,-100.00,SW,230,1.0,10.0,58,0.00,,,0.00,662.000000,,2013-02-10 18:41:00,
2013-02-10 10:51:00,34.0,21.0,-100.00,South,182,0.0,7.0,58,0.00,,,0.00,752.000000,,2013-02-10 18:51:00,
2013-02-10 11:11:00,34.0,21.0,-100.00,South,182,0.0,7.0,58,0.00,,,0.00,752.000000,,2013-02-10 19:11:00,
2013-02-10 11:21:00,34.0,21.0,-100.00,South,182,0.0,7.0,58,0.00,,,0.00,752.000000,,2013-02-10 19:21:00,
2013-02-10 11:32:00,34.0,21.0,-100.00,South,182,0.0,7.0,58,0.00,,,0.00,752.000000,,2013-02-10 19:32:00,
2013-02-10 11:42:00,34.0,21.0,-100.00,South,182,0.0,7.0,58,0.00,,,0.00,752.000000,,2013-02-10 19:42:00,
2013-02-10 11:51:00,33.0,23.0,-100.00,SSE,164,2.0,6.0,67,0.00,,,-99.99,625.000000,,2013-02-10 19:51:00,
2013-02-10 12:11:00,33.0,23.0,-100.00,SSE,164,2.0,6.0,67,0.00,,,-99.99,625.000000,,2013-02-10 20:11:00,
2013-02-10 12:21:00,33.0,23.0,-100.00,SSE,164,2.0,6.0,67,0.00,,,-99.99,625.000000,,2013-02-10 20:21:00,
2013-02-10 12:32:00,33.0,23.0,-100.00,SSE,164,2.0,6.0,67,0.00,,,-99.99,625.000000,,2013-02-10 20:32:00,
2013-02-10 12:42:00,33.0,23.0,-100.00,SSE,164,2.0,6.0,67,0.00,,,-99.99,625.000000,,2013-02-10 20:42:00,
2013-02-10 12:51:00,30.0,23.0,-100.00,SE,138,2.0,8.0,74,0.00,,,0.00,453.000000,,2013-02-10 20:51:00,
2013-02-10 13:11:00,30.0,23.0,-100.00,SE,138,2.0,8.0,74,0.00,,,0.00,453.000000,,2013-02-10 21:11:00,
2013-02-10 13:21:00,30.0,23.0,-100.00,SE,138,2.0,8.0,74,0.00,,,0.00,453.000000,,2013-02-10 21:21:00,
2013-02-10 13:32:00,30.0,23.0,-100.00,SE,138,2.0,8.0,74,0.00,,,0.00,453.000000,,2013-02-10 21:32:00,
2013-02-10 13:42:00,30.0,23.0,-100.00,SE,138,2.0,8.0,74,0.00,,,0.00,453.000000,,2013-02-10 21:42:00,
2013-02-10 13:51:00,28.0,24.0,-100.00,South,180,0.0,7.0,86,0.00,,,0.00,305.000000,,2013-02-10 21:51:00,
2013-02-10 14:21:00,28.0,24.0,-100.00,South,180,0.0,7.0,86,0.00,,,0.00,305.000000,,2013-02-10 22:21:00,
2013-02-10 14:32:00,28.0,24.0,-100.00,South,180,0.0,7.0,86,0.00,,,0.00,305.000000,,2013-02-10 22:32:00,
2013-02-10 14:42:00,28.0,24.0,-100.00,South,180,0.0,7.0,86,0.00,,,0.00,305.000000,,2013-02-10 22:42:00,
2013-02-10 14:51:00,28.0,26.0,-100.00,South,180,1.0,7.0,91,0.00,,,0.00,304.000000,,2013-02-10 22:51:00,
2013-02-10 15:11:00,28.0,26.0,-100.00,South,180,1.0,7.0,91,0.00,,,0.00,304.000000,,2013-02-10 23:11:00,
2013-02-10 15:21:00,28.0,26.0,-100.00,South,180,1.0,7.0,91,0.00,,,0.00,304.000000,,2013-02-10 23:21:00,
2013-02-10 15:31:00,28.0,26.0,-100.00,South,180,1.0,7.0,91,0.00,,,0.00,304.000000,,2013-02-10 23:31:00,
2013-02-10 15:41:00,28.0,26.0,-100.00,South,180,1.0,7.0,91,0.00,,,0.00,304.000000,,2013-02-10 23:41:00,
2013-02-10 15:51:00,25.0,23.0,-100.00,SSW,201,1.0,7.0,91,0.00,,,0.00,210.000000,,2013-02-10 23:51:00,
2013-02-10 16:22:00,25.0,23.0,-100.00,SSW,201,1.0,7.0,91,0.00,,,0.00,210.000000,,2013-02-11 00:22:00,
2013-02-10 16:32:00,25.0,23.0,-100.00,SSW,201,1.0,7.0,91,0.00,,,0.00,210.000000,,2013-02-11 00:32:00,
2013-02-10 16:41:00,25.0,23.0,-100.00,SSW,201,1.0,7.0,91,0.00,,,0.00,210.000000,,2013-02-11 00:41:00,
2013-02-10 16:51:00,22.0,22.0,-100.00,SSW,202,1.0,6.0,100,0.00,,,0.00,56.000000,,2013-02-11 00:51:00,
2013-02-10 17:11:00,22.0,22.0,-100.00,SSW,202,1.0,6.0,100,0.00,,,0.00,56.000000,,2013-02-11 01:11:00,
2013-02-10 17:21:00,22.0,22.0,-100.00,SSW,202,1.0,6.0,100,0.00,,,0.00,56.000000,,2013-02-11 01:21:00,
2013-02-10 17:32:00,22.0,22.0,-100.00,SSW,202,1.0,6.0,100,0.00,,,0.00,56.000000,,2013-02-11 01:32:00,
2013-02-10 17:41:00,22.0,22.0,-100.00,SSW,202,1.0,6.0,100,0.00,,,0.00,56.000000,,2013-02-11 01:41:00,
2013-02-10 17:51:00,21.0,20.0,-100.00,SSE,147,0.0,6.0,96,0.00,,,-99.99,16.000000,,2013-02-11 01:51:00,
2013-02-10 18:21:00,21.0,20.0,-100.00,SSE,147,0.0,6.0,96,0.00,,,-99.99,16.000000,,2013-02-11 02:21:00,
2013-02-10 18:31:00,21.0,20.0,-100.00,SSE,147,0.0,6.0,96,0.00,,,-99.99,16.000000,,2013-02-11 02:31:00,
2013-02-10 18:41:00,21.0,20.0,-100.00,SSE,147,0.0,6.0,96,0.00,,,-99.99,16.000000,,2013-02-11 02:41:00,
2013-02-10 18:51:00,21.0,18.0,-100.00,SSE,162,0.0,3.0,89,0.00,,,0.00,0.000000,,2013-02-11 02:51:00,
2013-02-10 19:21:00,21.0,18.0,-100.00,SSE,162,0.0,3.0,89,0.00,,,0.00,0.000000,,2013-02-11 03:21:00,
2013-02-10 19:31:00,21.0,18.0,-100.00,SSE,162,0.0,3.0,89,0.00,,,0.00,0.000000,,2013-02-11 03:31:00,
2013-02-10 19:41:00,21.0,18.0,-100.00,SSE,162,0.0,3.0,89,0.00,,,0.00,0.000000,,2013-02-11 03:41:00,
2013-02-10 19:51:00,22.0,15.0,-100.00,East,82,0.0,3.0,74,0.00,,,0.00,0.000000,,2013-02-11 03:51:00,
2013-02-10 20:21:00,22.0,15.0,-100.00,East,82,0.0,3.0,74,0.00,,,0.00,0.000000,,2013-02-11 04:21:00,
2013-02-10 20:31:00,22.0,15.0,-100.00,East,82,0.0,3.0,74,0.00,,,0.00,0.000000,,2013-02-11 04:31:00,
2013-02-10 20:41:00,22.0,15.0,-100.00,East,82,0.0,3.0,74,0.00,,,0.00,0.000000,,2013-02-11 04:41:00,
2013-02-10 20:51:00,23.0,15.0,-100.00,NE,53,4.0,10.0,70,0.00,,,0.00,0.000000,,2013-02-11 04:51:00,
2013-02-10 21:11:00,23.0,15.0,-100.00,NE,53,4.0,10.0,70,0.00,,,0.00,0.000000,,2013-02-11 05:11:00,
2013-02-10 21:22:00,23.0,15.0,-100.00,NE,53,4.0,10.0,70,0.00,,,0.00,0.000000,,2013-02-11 05:22:00,
2013-02-10 21:31:00,23.0,15.0,-100.00,NE,53,4.0,10.0,70,0.00,,,0.00,0.000000,,2013-02-11 05:31:00,
2013-02-10 21:41:00,23.0,15.0,-100.00,NE,53,4.0,10.0,70,0.00,,,0.00,0.000000,,2013-02-11 05:41:00,
2013-02-10 21:51:00,22.0,13.0,-100.00,ENE,68,4.0,15.0,69,0.00,,,-99.99,0.000000,,2013-02-11 05:51:00,
2013-02-10 22:11:00,22.0,13.0,-100.00,ENE,68,4.0,15.0,69,0.00,,,-99.99,0.000000,,2013-02-11 06:11:00,
2013-02-10 22:21:00,22.0,13.0,-100.00,ENE,68,4.0,15.0,69,0.00,,,-99.99,0.000000,,2013-02-11 06:21:00,
2013-02-10 22:32:00,22.0,13.0,-100.00,ENE,68,4.0,15.0,69,0.00,,,-99.99,0.000000,,2013-02-11 06:32:00,
2013-02-10 22:42:00,22.0,13.0,-100.00,ENE,68,4.0,15.0,69,0.00,,,-99.99,0.000000,,2013-02-11 06:42:00,
2013-02-10 22:51:00,21.0,16.0,-100.00,East,91,0.0,9.0,79,0.00,,,0.00,0.000000,,2013-02-11 06:51:00,
2013-02-10 23:11:00,21.0,16.0,-100.00,East,91,0.0,9.0,79,0.00,,,0.00,0.000000,,2013-02-11 07:11:00,
2013-02-10 23:21:00,21.0,16.0,-100.00,East,91,0.0,9.0,79,0.00,,,0.00,0.000000,,2013-02-11 07:21:00,
2013-02-10 23:32:00,21.0,16.0,-100.00,East,91,0.0,9.0,79,0.00,,,0.00,0.000000,,2013-02-11 07:32:00,
2013-02-10 23:41:00,21.0,16.0,-100.00,East,91,0.0,9.0,79,0.00,,,0.00,0.000000,,2013-02-11 07:41:00,
2013-02-10 23:51:00,20.0,17.0,-100.00,East,96,0.0,6.0,87,0.00,,,0.00,0.000000,,2013-02-11 07:51:00,